Regional Weather Roundup
Issued by NWS

Home | Current Version | Previous Version | Text Only | Print | Product List | Glossary Off
Versions: 1 2 3 4 5 6 7 8 9 10 11 12 13 14 15 16 17 18 19 20 21 22 23 24 25 26 27 28 29 30 31 32 33 34 35 36 37 38 39 40 41 42 43 44 45 46 47 48 49 50

000
ASUS45 KABQ 231501
RWRNM
NEW MEXICO REGIONAL WEATHER ROUNDUP
NATIONAL WEATHER SERVICE ALBUQUERQUE NM
900 AM MDT TUE AUG 23 2016

NOTE: "FAIR" MEANS FEW OR NO CLOUDS BELOW 12,000 FEET AGL WITH NO
       SIGNIFICANT WEATHER OR OBSTRUCTIONS TO VISION.

      THIS PRODUCT IS RELEASED AS TWO VERSIONS.  ONE VERSION NEAR
      THE TOP OF THE HOUR CONTAINING PRELIMINARY DATA FROM ALBUQUERQUE
      AND OTHER STATIONS.  A FINAL VERSION WITH ADDITIONAL DATA IS
      ISSUED ABOUT 10 MINUTES AFTER THE HOUR.

NMZ501-503-504-510>518-231600-
NORTHWEST PLATEAU/NORTHCENTRAL MOUNTAINS

CITY           SKY/WX    TMP DP  RH WIND       PRES   REMARKS
FARMINGTON     PTSUNNY   61  50  67 SE9       30.20S
LOS ALAMOS     FAIR      56  48  74 CALM      30.33R
SANTA FE       FAIR      61  51  70 CALM      30.28R
TAOS           FAIR      48  43  81 CALM      30.32S
ANGEL FIRE     FAIR      56  45  64 W18G24    30.36R

$$
NMZ402-403-502-505>509-231600-
WESTCENTRAL MOUNTAINS/SOUTHWEST MOUNTAINS

CITY           SKY/WX    TMP DP  RH WIND       PRES   REMARKS
GALLUP         CLOUDY    60  50  69 SW10      30.30R
GRANTS         FAIR      59  50  74 CALM      30.31S
SILVER CITY    FAIR      69  55  61 NW5       30.25R

$$
NMZ407-409-411-412-231600-
SOUTHERN DESERTS

CITY           SKY/WX    TMP DP  RH WIND       PRES   REMARKS
LORDSBURG      FAIR      73  54  49 CALM      30.19R
DEMING         FAIR      71  62  73 SW6       30.18R
LAS CRUCES     FAIR      73  60  63 S7        30.19S
HOLLOMAN AFB   FAIR      78  56  47 S10       30.15R
ALAMOGORDO     FAIR      73  57  56 S5        30.18R
T OR C         FAIR      70  57  63 W6        30.20R

$$
NMZ519>523-231600-
CENTRAL VALLEYS/CENTRAL HIGHLANDS

CITY           SKY/WX    TMP DP  RH WIND       PRES   REMARKS
ALBUQUERQUE    FAIR      64  54  69 CALM      30.24R
DOUBLE EAGLE   PTSUNNY   59  54  82 VRB5      30.27R
MORIARTY ARPT  FAIR      62  51  68 CALM      30.29R
CLINES CORNERS FAIR      64  49  57 W13       30.31S
BELEN          FAIR      64  56  74 CALM      30.23R
SOCORRO        FAIR      67  53  60 CALM      30.21R

$$
NMZ524>526-539-540-231600-
SOUTHCENTRAL MOUNTAINS

CITY           SKY/WX    TMP DP  RH WIND       PRES   REMARKS
RUIDOSO        NOT AVBL

$$
NMZ527>531-231600-
NORTHEAST HIGHLANDS/NORTHEAST PLAINS

CITY           SKY/WX    TMP DP  RH WIND       PRES   REMARKS
LAS VEGAS      FAIR      67  47  48 SW12      30.26S
RATON          FAIR      63  44  50 VRB5      30.17S
CLAYTON        FAIR      75  50  41 SW16      30.07S

$$
NMZ532>537-231600-
EASTCENTRAL PLAINS

CITY           SKY/WX    TMP DP  RH WIND       PRES   REMARKS
TUCUMCARI      FAIR      75  63  66 SW15      30.09S
CANNON AFB     FAIR      73  66  76 W15       30.14R
CLOVIS AIRPORT FAIR      72  64  78 SW13      30.14R

$$
NMZ028-029-538-231600-
SOUTHEAST PLAINS

CITY           SKY/WX    TMP DP  RH WIND       PRES   REMARKS
ROSWELL        FAIR      75  65  70 S7        30.11R
ARTESIA        FAIR      75  73  94 S10       30.12R
CARLSBAD       FAIR      75  65  70 CALM      30.10R
HOBBS          SUNNY     75  64  69 S12       30.14R


$$




USA.gov is the U.S. government's official web portal to all federal, state and local government web resources and services.